Location: Aranbee
(34.0885°N, 118.2342°W)
Time: 12:49:02
(UTC+00:00)

Tiros 1 - Pass Details

Date: 03 December 2020
Orbit: 630 x 663 km, 48.4° (Epoch: 21 January)

Event Time Altitude Azimuth Distance (km) Brightness Sun altitude
Rises 02:19:47 0° 313° (NW) 2,988 11.0 -19.5°
Reaches altitude 10° 02:22:32 10° 328° (NNW) 2,071 10.0 -20.1°
Enters shadow 02:25:54 23° 12° (NNE) 1,376 8.6 -20.8°
Maximum altitude 02:26:24 24° 22° (NNE) 1,359 - -20.9°
Drops below altitude 10° 02:30:14 10° 76° (ENE) 2,051 - -21.7°
Sets 02:32:57 0° 90° (E) 2,953 - -22.2°
